Tracking 19484 objects as of 19-Jan-2019
HD Live streaming from Space Station
objects crossing your sky now

FLOCK 3P 23

Track FLOCK 3P 23 now!
10-day predictions
FLOCK 3P 23 is classified as:


NORAD ID: 42018
Int'l Code: 2017-008BY
Perigee: 492.9 km
Apogee: 503.0 km
Inclination: 97.4 °
Period: 94.4 minutes
Semi major axis: 6868 km
RCS: Unknown
Launch date: February 15, 2017
Source: United States (US)
Launch site: SRIHARIKOTA (SRI)
aabbcc
Your satellite tracking list
Your tracking list is empty




NASA's NSSDC Master Catalog

Two Line Element Set (TLE):
1 42018U 17008BY  19018.48997600  .00000769  00000-0  33692-4 0  9992
2 42018  97.4255  86.7889 0007311 320.5497  39.5208 15.24991309105687
Source of the keplerian elements: AFSPC